Santiago de Compostela, Spain

9:47 AM CEST on March 28, 2017 (GMT +0200)
Santiago

Weather History for LEST - November, 2011

Change the Weather History Date:

Monday, November 7, 2011

  Actual Average Record
Temperature  
Mean Temperature 53 °F -  
Max Temperature 62 °F 53 °F 73 °F (2015)
Min Temperature 44 °F 41 °F 33 °F (2016)
Degree Days  
Heating Degree Days 12    
Growing Degree Days 3 (Base 50)    
Moisture  
Dew Point 44 °F    
Average Humidity 76    
Maximum Humidity 93    
Minimum Humidity 45    
Precipitation  
Precipitation 0.00 in - - ()
Sea Level Pressure  
Sea Level Pressure 30.08 in    
Wind  
Wind Speed 4 mph ()    
Max Wind Speed 10 mph    
Max Gust Speed -    
Visibility 6.2 miles    
Events      
Averages and records for this station are not official NWS values.
T = Trace of Precipitation, MM = Missing Value Source: Averaged Metar Reports

Daily Weather History Graph

Daily Weather History Graph

Search for Another Location

Airport or City:

Trip Planner

Search our weather history database for the weather conditions in past years. The results will help you decide how hot, cold, wet, or windy it might be!

Date:

Astronomy

Nov. 07, 2011 Rise Set
Actual Time 8:15 AM CET 6:19 PM CET
Civil Twilight 7:45 AM CET 6:48 PM CET
Nautical Twilight 7:11 AM CET 7:22 PM CET
Astronomical Twilight 6:38 AM CET 7:55 PM CET
Moon 4:26 PM CET (11/7) 5:01 AM CET (11/7)
Length of Visible Light 11h 03m
Length of Day
10h 04m
Waxing Gibbous, 90% of the Moon is Illuminated
Nov 7
Waxing Gibbous
Nov 10
Full
Nov 18
Last Quarter
Nov 25
New
Dec 2
First Quarter

Hourly Weather History & Observations

Time (CET) Temp. Windchill Dew Point Humidity Pressure Visibility Wind Dir Wind Speed Gust Speed Precip Events Conditions
12:00 AM 48.2 °F - 41.0 °F 76% 30.21 in - NE 9.2 mph - N/A   Clear
12:30 AM 48.2 °F - 41.0 °F 76% 30.21 in - NE 9.2 mph - N/A   Clear
1:00 AM 48.2 °F - 42.8 °F 82% 30.21 in 6.2 mi NE 5.8 mph - N/A   Partly Cloudy
1:30 AM 46.4 °F 44.3 °F 42.8 °F 87% 30.18 in 6.2 mi NE 4.6 mph - N/A   Partly Cloudy
2:00 AM 46.4 °F - 42.8 °F 87% 30.18 in 6.2 mi Variable 2.3 mph - N/A   Partly Cloudy
2:30 AM 48.2 °F - 44.6 °F 87% 30.18 in 6.2 mi NNE 6.9 mph - N/A   Partly Cloudy
3:00 AM 46.4 °F 42.9 °F 42.8 °F 87% 30.18 in 6.2 mi NNE 6.9 mph - N/A   Partly Cloudy
3:30 AM 46.4 °F 43.5 °F 44.6 °F 93% 30.15 in 6.2 mi NNE 5.8 mph - N/A   Partly Cloudy
4:00 AM 46.4 °F 45.2 °F 42.8 °F 87% 30.15 in 6.2 mi NE 3.5 mph - N/A   Partly Cloudy
4:30 AM 44.6 °F - 42.8 °F 93% 30.15 in - Variable 1.2 mph - N/A   Clear
5:00 AM 44.6 °F - 42.8 °F 93% 30.15 in - Variable 1.2 mph - N/A   Clear
5:30 AM 44.6 °F - 42.8 °F 93% 30.15 in - Calm Calm - N/A   Clear
6:00 AM 46.4 °F 45.2 °F 44.6 °F 93% 30.12 in 6.2 mi ENE 3.5 mph - N/A   Partly Cloudy
6:30 AM 46.4 °F 44.3 °F 44.6 °F 93% 30.12 in 6.2 mi ENE 4.6 mph - N/A   Scattered Clouds
7:00 AM 48.2 °F - 44.6 °F 87% 30.12 in 6.2 mi Variable 2.3 mph - N/A   Partly Cloudy
7:30 AM 46.4 °F - 44.6 °F 93% 30.12 in 6.2 mi Variable 2.3 mph - N/A   Scattered Clouds
8:00 AM 46.4 °F 45.2 °F 44.6 °F 93% 30.12 in 6.2 mi East 3.5 mph - N/A   Scattered Clouds
8:30 AM 46.4 °F 45.2 °F 44.6 °F 93% 30.12 in 6.2 mi ESE 3.5 mph - N/A   Scattered Clouds
9:00 AM 48.2 °F - 44.6 °F 87% 30.12 in 6.2 mi Variable 2.3 mph - N/A   Scattered Clouds
9:30 AM 50.0 °F - 46.4 °F 87% 30.12 in 6.2 mi Calm Calm - N/A   Partly Cloudy
10:00 AM 50.0 °F - 46.4 °F 87% 30.12 in 6.2 mi East 3.5 mph - N/A   Partly Cloudy
10:30 AM 51.8 °F - 48.2 °F 88% 30.12 in 6.2 mi ESE 6.9 mph - N/A   Partly Cloudy
11:00 AM 51.8 °F - 48.2 °F 88% 30.12 in 6.2 mi ESE 6.9 mph - N/A   Partly Cloudy
11:30 AM 53.6 °F - 48.2 °F 82% 30.09 in 6.2 mi ESE 9.2 mph - N/A   Partly Cloudy
12:00 PM 55.4 °F - 48.2 °F 77% 30.09 in 6.2 mi SE 10.4 mph - N/A   Partly Cloudy
12:30 PM 57.2 °F - 48.2 °F 72% 30.09 in 6.2 mi ESE 6.9 mph - N/A   Partly Cloudy
1:00 PM 57.2 °F - 48.2 °F 72% 30.06 in 6.2 mi ESE 3.5 mph - N/A   Partly Cloudy
1:30 PM 59.0 °F - 46.4 °F 63% 30.06 in 6.2 mi SE 4.6 mph - N/A   Partly Cloudy
2:00 PM 60.8 °F - 46.4 °F 59% 30.04 in 6.2 mi Variable 2.3 mph - N/A   Partly Cloudy
2:30 PM 62.6 °F - 42.8 °F 48% 30.04 in 6.2 mi Calm Calm - N/A   Partly Cloudy
3:00 PM 62.6 °F - 42.8 °F 48% 30.04 in 6.2 mi Variable 1.2 mph - N/A   Partly Cloudy
3:30 PM 62.6 °F - 42.8 °F 48% 30.01 in 6.2 mi Variable 2.3 mph - N/A   Partly Cloudy
4:00 PM 62.6 °F - 41.0 °F 45% 30.01 in 6.2 mi Variable 1.2 mph - N/A   Partly Cloudy
4:30 PM 62.6 °F - 42.8 °F 48% 30.01 in 6.2 mi Variable 2.3 mph - N/A   Partly Cloudy
5:00 PM 60.8 °F - 44.6 °F 55% 30.01 in 6.2 mi Variable 2.3 mph - N/A   Partly Cloudy
5:30 PM 60.8 °F - 44.6 °F 55% 30.01 in 6.2 mi Variable 2.3 mph - N/A   Partly Cloudy
6:00 PM 59.0 °F - 44.6 °F 59% 29.98 in 6.2 mi Variable 1.2 mph - N/A   Partly Cloudy
6:30 PM 57.2 °F - 44.6 °F 63% 29.98 in - Calm Calm - N/A   Clear
7:00 PM 55.4 °F - 44.6 °F 67% 29.98 in - Variable 2.3 mph - N/A   Clear
7:30 PM 53.6 °F - 42.8 °F 67% 29.98 in - SW 3.5 mph - N/A   Clear
8:00 PM 53.6 °F - 41.0 °F 62% 29.98 in - Variable 2.3 mph - N/A   Clear
8:30 PM 51.8 °F - 39.2 °F 62% 29.98 in - SW 3.5 mph - N/A   Clear
9:00 PM 51.8 °F - 39.2 °F 62% 29.98 in - SW 3.5 mph - N/A   Clear
9:30 PM 51.8 °F - 39.2 °F 62% 29.98 in - SW 3.5 mph - N/A   Clear
10:00 PM 50.0 °F - 42.8 °F 76% 29.98 in - SW 5.8 mph - N/A   Clear
10:30 PM 50.0 °F - 44.6 °F 82% 29.98 in - WSW 3.5 mph - N/A   Clear
11:00 PM 48.2 °F - 44.6 °F 87% 29.98 in - SSW 3.5 mph - N/A   Clear
11:30 PM 48.2 °F - 42.8 °F 82% 29.98 in - South 4.6 mph - N/A   Clear